[[{"header":{"parameterUnit":"m.s-1","parameterCategory":2,"la1":30.2991,"la2":30.254,"lo1":-89.0895,"lo2":-89.0444,"dy":0.0017,"dx":0.0017,"nx":28,"ny":28,"refTime":"2023-11-03T03:00:00:Z","depth":"0","parameterNumber":2,"parameterNumberName":"U-component_of_CURRENTS"},"data":[0,0,0,0,0,0,0,0,0,0,0,0,0,0,0,0,0,0,0,0,0,0,0,0,0,0,0,0,0,0,0,0,0,0,0,0,0,0,0,0,0,0,0,0,0,0,0,0,0,0,0,0,0,0,0,0,0,0,0.413,0.413,0,0.4034,0.4032,0.403,0.3969,0.397,0.3971,0.3972,0.3934,0.3932,0.393,0,0,0,0,0,0,0,0,0,0,0,0,0,0.4134,0.4134,0.413,0.413,0.413,0.4034,0.4032,0.4029,0.3969,0.397,0.3971,0.3972,0.3934,0.3932,0.393,0,0,0,0,0,0,0,0,0,0,0,0,0,0.4083,0.4134,0.413,0.4098,0.4095,0.4035,0.4032,0.4029,0.3969,0.397,0.3971,0.3972,0.3935,0.3933,0.393,0.389,0,0,0.3922,0.3921,0,0,0,0,0,0,0,0,0.4086,0.4081,0.4103,0.41,0.4097,0.4026,0.402,0.399,0.3969,0.4004,0.3972,0.3973,0.3977,0.3971,0.3932,0.3888,0.3887,0.3922,0.392,0.3919,0.3918,0,0,0,0,0,0,0,0.409,0.4085,0.408,0.4103,0.4099,0.4045,0.4039,0.4012,0.3976,0.4001,0.3999,0.4008,0.3974,0.3934,0.3931,0.3886,0.3922,0.3919,0.3918,0.3917,0.3893,0.3894,0,0,0,0,0,0,0.4132,0.4089,0.4083,0.4078,0.4108,0.4045,0.4038,0.4037,0.3975,0.397,0.4007,0.4006,0.3938,0.3934,0.393,0.3964,0.3919,0.3917,0.3915,0.3892,0.3893,0.3894,0,0,0,0,0,0,0.4132,0.4132,0.4087,0.4091,0.4084,0.4046,0.4045,0.4035,0.4011,0.3982,0.3975,0.3997,0.3939,0.3934,0.3934,0.3959,0.3915,0.3913,0.3891,0.3892,0.3894,0.3978,0,0,0,0,0,0,0.4132,0.4132,0.4127,0.4094,0.4086,0.4058,0.4045,0.4033,0.402,0.4017,0.3971,0.3967,0.394,0.3938,0.3931,0.3955,0.3911,0.389,0.3892,0.3893,0.3975,0.3983,0.399,0,0,0,0,0,0.4132,0.4122,0.4127,0.4127,0.4086,0.4059,0.4047,0.4016,0.4019,0.3999,0.3991,0.3969,0.3945,0.3937,0.3928,0.3952,0.3889,0.3891,0.3893,0.3971,0.3981,0.3989,0,0,0,0,0,0,0.41,0.4116,0.412,0.411,0.4096,0.4054,0.4034,0.4025,0.3995,0.4004,0.3975,0.397,0.3988,0.3953,0.3945,0.395,0.3915,0.3916,0.3977,0.3986,0.3993,0.4017,0.3909,0,0,0,0,0,0.4102,0.4109,0.4107,0.4098,0.4097,0.407,0.4053,0.4044,0.4026,0.4012,0.3992,0.3979,0.3983,0.3973,0.3962,0.3952,0.3977,0.3963,0.3971,0.3977,0.3991,0.4052,0.4068,0.3901,0.3901,0.3901,0,0,0.4089,0.4099,0.4101,0.4094,0.4077,0.4072,0.4058,0.4047,0.4049,0.4017,0.4007,0.4009,0.399,0.3995,0.3997,0.397,0.4043,0.398,0.3986,0.3996,0.4056,0.4073,0.4088,0.3902,0.3902,0.3902,0,0,0.4071,0.4076,0.4079,0.4078,0.4083,0.4071,0.408,0.406,0.4055,0.4049,0.4053,0.4077,0.4036,0.4049,0.4047,0.4086,0.4092,0.4076,0.4119,0.4179,0.4194,0.4207,0.429,0.431,0.4066,0.4066,0.4066,0,0.405,0.4063,0.4069,0.4075,0.4082,0.4082,0.4086,0.4074,0.406,0.4078,0.4059,0.4083,0.4066,0.4116,0.4129,0.4106,0.4147,0.4088,0.4192,0.4205,0.4218,0.4299,0.432,0.4071,0.407,0.407,0.4069,0,0.4047,0.4054,0.4054,0.4074,0.4074,0.4078,0.4092,0.4097,0.4103,0.4108,0.416,0.4153,0.4171,0.4174,0.4157,0.4241,0.4248,0.4209,0.4176,0.424,0.4321,0.4341,0.4077,0.4075,0.4074,0.4073,0,0,0.4001,0.4046,0.4041,0.4067,0.4085,0.4088,0.4109,0.4135,0.4169,0.4176,0.4229,0.4249,0.427,0.4272,0.4276,0.4322,0.4449,0.4302,0.4303,0.4397,0.4613,0.4532,0.4546,0.4431,0.4435,0.4437,0.4646,0,0.3992,0.4021,0.4039,0.4061,0.4084,0.4108,0.4126,0.4159,0.4182,0.4229,0.4278,0.432,0.43,0.4326,0.4377,0.4437,0.4501,0.4398,0.4524,0.4529,0.4459,0.4566,0.4307,0.4462,0.4666,0.4669,0.4672,0,0.3983,0.401,0.4041,0.4095,0.4104,0.4115,0.4175,0.4191,0.4264,0.4287,0.4357,0.4392,0.4496,0.4447,0.4609,0.4547,0.4591,0.4628,0.4636,0.4543,0.4485,0.4423,0.4491,0.4388,0.4703,0.47,0.4698,0,0.3976,0.401,0.4046,0.4062,0.4114,0.4138,0.416,0.4216,0.4255,0.434,0.4395,0.4499,0.4582,0.4653,0.4734,0.4683,0.491,0.4839,0.482,0.4816,0.4609,0.458,0.4596,0.4951,0.4951,0.495,0.495,0,0.3974,0.3996,0.405,0.4073,0.4116,0.4147,0.4198,0.423,0.4305,0.4369,0.4435,0.4525,0.4638,0.4768,0.4802,0.49,0.4971,0.4868,0.487,0.4632,0.4604,0.4512,0.4467,0.4958,0.4957,0.4955,0.4954,0,0.3957,0.3995,0.4043,0.4101,0.4121,0.4151,0.4217,0.4253,0.4323,0.4418,0.4457,0.4609,0.477,0.488,0.5031,0.4999,0.4932,0.5083,0.4813,0.4777,0.4596,0.4565,0.4441,0.432,0.509,0.5089,0.5089,0,0.3941,0.397,0.4055,0.4078,0.4102,0.4152,0.4182,0.4253,0.43,0.4459,0.4515,0.471,0.4809,0.5022,0.5021,0.5098,0.4947,0.4876,0.4703,0.4587,0.4555,0.4382,0.4275,0.449,0.4484,0.448,0.4476,0,0.3901,0.3947,0.3984,0.4056,0.4097,0.4135,0.4189,0.4237,0.4328,0.4406,0.4532,0.4625,0.4822,0.4783,0.4878,0.4868,0.4605,0.4785,0.4721,0.4146,0.39,0.378,0.439,0.4437,0.4441,0.4444,0.4446,0.4447,0.3853,0.3882,0.395,0.4,0.405,0.4082,0.4063,0.4141,0.4198,0.4244,0.4435,0.447,0.4515,0.4603,0.4577,0.4357,0.4394,0.4176,0.4179,0.4039,0.3801,0.4343,0.4341,0.4344,0.4347,0.435,0.4352,0,0.377,0.3822,0.3878,0.3931,0.3929,0.3986,0.4024,0.3966,0.3969,0.4086,0.414,0.4112,0.4052,0.4054,0.3908,0.376,0.3564,0.3662,0.3349,0.33,0.3837,0.3686,0.3468,0.3468,0.3468,0.3469,0.3469,0.3469,0.3731,0.3754,0.3797,0.3779,0.3793,0.3714,0.3687,0.3643,0.3677,0.3604,0.3554,0.3607,0.3662,0.36,0.34,0.3313,0.3093,0.2923,0.3015,0.3388,0.3435,0.3479,0.3327,0.3037,0.3037,0.2264,0.2259,0.2254]},{"header":{"parameterUnit":"m.s-1","parameterCategory":2,"la1":30.2991,"la2":30.254,"lo1":-89.0895,"lo2":-89.0444,"dy":0.0017,"dx":0.0017,"nx":28,"ny":28,"refTime":"2023-11-03T03:00:00:Z","depth":"0","parameterNumber":3,"parameterNumberName":"V-component_of_CURRENTS"},"data":[0,0,0,0,0,0,0,0,0,0,0,0,0,0,0,0,0,0,0,0,0,0,0,0,0,0,0,0,0,0,0,0,0,0,0,0,0,0,0,0,0,0,0,0,0,0,0,0,0,0,0,0,0,0,0,0,0,0,-0.0474,-0.0474,0,-0.0412,-0.0411,-0.041,-0.037,-0.037,-0.037,-0.037,-0.039,-0.0391,-0.0391,0,0,0,0,0,0,0,0,0,0,0,0,0,-0.049,-0.049,-0.0474,-0.0474,-0.0473,-0.0412,-0.0411,-0.041,-0.037,-0.037,-0.037,-0.037,-0.039,-0.0391,-0.0391,0,0,0,0,0,0,0,0,0,0,0,0,0,-0.0458,-0.049,-0.0474,-0.0449,-0.0446,-0.0413,-0.0411,-0.041,-0.037,-0.037,-0.037,-0.037,-0.039,-0.0391,-0.0391,-0.0393,0,0,-0.0393,-0.0394,0,0,0,0,0,0,0,0,-0.046,-0.0457,-0.0453,-0.0451,-0.0448,-0.0402,-0.0424,-0.0409,-0.037,-0.0395,-0.037,-0.037,-0.0404,-0.0404,-0.0385,-0.0394,-0.0395,-0.0394,-0.0394,-0.0394,-0.0394,0,0,0,0,0,0,0,-0.0462,-0.0459,-0.0446,-0.0453,-0.0449,-0.0417,-0.0413,-0.042,-0.0398,-0.0393,-0.0391,-0.039,-0.0403,-0.0385,-0.0386,-0.0395,-0.0394,-0.0394,-0.0395,-0.0395,-0.041,-0.041,0,0,0,0,0,0,-0.0481,-0.0461,-0.0448,-0.0444,-0.0458,-0.0418,-0.0413,-0.0414,-0.0396,-0.0394,-0.039,-0.0388,-0.0383,-0.0385,-0.0387,-0.0384,-0.0394,-0.0395,-0.0395,-0.041,-0.041,-0.041,0,0,0,0,0,0,-0.0481,-0.048,-0.0451,-0.0454,-0.0449,-0.0418,-0.0419,-0.0412,-0.0394,-0.0394,-0.0392,-0.0379,-0.0384,-0.0386,-0.0393,-0.0385,-0.0395,-0.0396,-0.041,-0.041,-0.041,-0.0381,0,0,0,0,0,0,-0.0482,-0.0481,-0.048,-0.0456,-0.0449,-0.0422,-0.0419,-0.0411,-0.0395,-0.0392,-0.0384,-0.0386,-0.0384,-0.0392,-0.0394,-0.0386,-0.0396,-0.041,-0.041,-0.041,-0.0382,-0.038,-0.0379,0,0,0,0,0,-0.0483,-0.0477,-0.048,-0.0479,-0.0452,-0.0422,-0.0414,-0.039,-0.0395,-0.0376,-0.0382,-0.0386,-0.0393,-0.0393,-0.0395,-0.0387,-0.041,-0.041,-0.041,-0.0383,-0.0381,-0.0379,0,0,0,0,0,0,-0.0474,-0.0472,-0.0475,-0.0468,-0.0447,-0.0416,-0.0398,-0.0392,-0.0379,-0.0383,-0.0387,-0.0388,-0.0393,-0.0398,-0.0397,-0.0392,-0.0402,-0.0403,-0.0381,-0.0379,-0.0377,-0.035,-0.0397,0,0,0,0,0,-0.0478,-0.0479,-0.0465,-0.0458,-0.0448,-0.0427,-0.0412,-0.0399,-0.0389,-0.0381,-0.0379,-0.0385,-0.0393,-0.0393,-0.0397,-0.0396,-0.0383,-0.0393,-0.0391,-0.0389,-0.0369,-0.0368,-0.0364,-0.041,-0.041,-0.041,0,0,-0.0478,-0.0473,-0.0476,-0.0457,-0.0439,-0.0403,-0.0416,-0.0392,-0.0364,-0.039,-0.0357,-0.0381,-0.0393,-0.0388,-0.039,-0.039,-0.0365,-0.0389,-0.0387,-0.0368,-0.0368,-0.0363,-0.0359,-0.041,-0.041,-0.041,0,0,-0.0451,-0.0469,-0.0446,-0.0429,-0.0406,-0.039,-0.0387,-0.036,-0.035,-0.0335,-0.0351,-0.037,-0.0367,-0.0373,-0.0378,-0.0372,-0.036,-0.0377,-0.0338,-0.0338,-0.0334,-0.033,-0.0283,-0.0275,-0.037,-0.037,-0.037,0,-0.0438,-0.0417,-0.0432,-0.0394,-0.0375,-0.0384,-0.0341,-0.0327,-0.0308,-0.03,-0.0321,-0.0331,-0.0356,-0.0349,-0.0349,-0.0366,-0.0346,-0.0345,-0.0334,-0.033,-0.0327,-0.028,-0.0272,-0.0369,-0.0369,-0.0369,-0.0369,0,-0.0387,-0.0367,-0.035,-0.0311,-0.0293,-0.0264,-0.0253,-0.0235,-0.0242,-0.0234,-0.0239,-0.0278,-0.028,-0.0303,-0.0324,-0.0313,-0.0298,-0.0337,-0.0336,-0.032,-0.0272,-0.0264,-0.0367,-0.0367,-0.0368,-0.0368,0,0,-0.0345,-0.0319,-0.0305,-0.0282,-0.0251,-0.0228,-0.0191,-0.0156,-0.0123,-0.0145,-0.0111,-0.0164,-0.0196,-0.0205,-0.0247,-0.0256,-0.0227,-0.028,-0.0281,-0.0224,-0.0182,-0.0159,-0.0148,-0.0264,-0.0263,-0.0262,-0.0149,0,-0.0285,-0.022,-0.0215,-0.0148,-0.0119,-0.0118,-0.0075,-0.0056,-0.0052,-0.0021,-0.0083,-0.0072,-0.0154,-0.0159,-0.0187,-0.0213,-0.0208,-0.0251,-0.0213,-0.021,-0.0186,-0.014,-0.0132,-0.003,-0.0141,-0.014,-0.0139,0,-0.022,-0.019,-0.0127,-0.008,-0.0062,-0.0022,0.0033,0.007,0.0094,0.0099,0.0081,0.0047,0.0028,-0.0053,-0.0078,-0.0098,-0.0131,-0.016,-0.0157,-0.0137,-0.0173,-0.007,-0.0012,-0.0195,-0.0126,-0.0127,-0.0128,0,-0.0194,-0.0121,-0.0079,-0.0063,-0.0009,0.0024,0.0062,0.0102,0.0152,0.0178,0.0223,0.0173,0.0182,0.0111,0.0044,-0.0009,0.0035,-0.0048,-0.005,-0.0046,-0.0032,-0.0029,-0.0139,-0.0058,-0.0058,-0.0058,-0.0059,0,-0.014,-0.0098,-0.0065,-0.0042,0.0034,0.0053,0.0139,0.0178,0.0243,0.0341,0.0282,0.0358,0.0222,0.0223,0.0121,0.0093,0.01,-0.0011,-0.0015,-0.0019,-0.0017,-0.0171,-0.0277,-0.0054,-0.0055,-0.0056,-0.0057,0,-0.011,-0.0097,-0.004,0.0017,0.0043,0.0096,0.0202,0.0274,0.0332,0.0463,0.0486,0.052,0.0547,0.0433,0.0363,0.0232,0.009,0.0156,0.0188,0.0183,-0.003,-0.0132,-0.0188,-0.0263,0.0169,0.017,0.0171,0,-0.0085,-0.006,0.0003,0.005,0.0083,0.0161,0.0235,0.0308,0.0406,0.0588,0.0674,0.0741,0.0842,0.0756,0.0549,0.0421,0.0207,0.0288,0.0157,-0.0011,-0.0129,-0.0214,-0.0282,0.0205,0.0206,0.0207,0.0208,0,-0.0022,-0.0011,0.004,0.0122,0.0196,0.0293,0.0409,0.0501,0.0635,0.0791,0.1021,0.1124,0.1067,0.0957,0.0738,0.06,0.0152,0.0304,0.0108,-0.0115,-0.019,-0.0274,0.0125,0.0217,0.0216,0.0215,0.0215,0.0215,0.0041,0.0085,0.0142,0.0229,0.0319,0.0452,0.0565,0.0721,0.0931,0.1228,0.1291,0.1547,0.1291,0.1021,0.0767,0.0283,0.0264,0.0093,-0.0008,-0.0072,-0.0186,0.0261,0.0344,0.0344,0.0344,0.0344,0.0343,0,0.0136,0.0177,0.0256,0.0374,0.0504,0.0522,0.0715,0.0866,0.1157,0.1464,0.1709,0.1815,0.1462,0.1047,0.0396,0.0017,-0.0156,-0.0201,-0.036,-0.041,-0.0024,-0.0069,-0.0045,-0.0045,-0.0045,-0.0045,-0.0045,-0.0044,0.019,0.0279,0.0307,0.0522,0.0622,0.0815,0.0939,0.1171,0.1421,0.185,0.2109,0.2265,0.1949,0.0707,-0.0156,-0.036,-0.0652,-0.0685,-0.0828,-0.0627,-0.061,-0.0594,-0.0665,-0.0766,-0.0767,-0.1189,-0.1194,-0.1197]}],[{"header":{"parameterUnit":"m.s-1","parameterCategory":2,"la1":30.2991,"la2":30.254,"lo1":-89.0895,"lo2":-89.0444,"dy":0.0017,"dx":0.0017,"nx":28,"ny":28,"refTime":"2023-11-03T03:00:00:Z","depth":"2","parameterNumber":2,"parameterNumberName":"U-component_of_CURRENTS"},"data":[0,0,0,0,0,0,0,0,0,0,0,0,0,0,0,0,0,0,0,0,0,0,0,0,0,0,0,0,0,0,0,0,0,0,0,0,0,0,0,0,0,0,0,0,0,0,0,0,0,0,0,0,0,0,0,0,0,0,0.2614,0.2615,0,0.2687,0.2687,0.2687,0.2721,0.2721,0.2722,0.2722,0.2674,0.2673,0.2671,0,0,0,0,0,0,0,0,0,0,0,0,0,0.2568,0.2568,0.2614,0.2615,0.2617,0.2687,0.2687,0.2687,0.2721,0.2721,0.2722,0.2723,0.2675,0.2673,0.2671,0,0,0,0,0,0,0,0,0,0,0,0,0,0.2603,0.2568,0.2614,0.2647,0.2651,0.2687,0.2687,0.2687,0.2721,0.2721,0.2722,0.2723,0.2676,0.2673,0.267,0.2638,0,0,0.2662,0.2661,0,0,0,0,0,0,0,0,0.2601,0.2604,0.264,0.2645,0.2649,0.2701,0.2654,0.2667,0.272,0.2687,0.2722,0.2723,0.2676,0.2673,0.2678,0.2636,0.2634,0.2662,0.266,0.2659,0.2658,0,0,0,0,0,0,0,0.2598,0.2601,0.2636,0.2642,0.2648,0.2681,0.2685,0.2657,0.2669,0.269,0.2694,0.2713,0.2677,0.268,0.2676,0.2633,0.2662,0.266,0.2658,0.2657,0.2682,0.2685,0,0,0,0,0,0,0.2598,0.2598,0.2634,0.2639,0.2634,0.2681,0.2686,0.2678,0.2672,0.2675,0.2712,0.2714,0.2684,0.2679,0.2675,0.2704,0.2659,0.2657,0.2655,0.268,0.2683,0.2685,0,0,0,0,0,0,0.2596,0.2599,0.2631,0.2627,0.2635,0.2681,0.2673,0.268,0.2701,0.2691,0.269,0.2729,0.2685,0.2678,0.2686,0.27,0.2656,0.2653,0.2678,0.2681,0.2684,0.2719,0,0,0,0,0,0,0.2594,0.2597,0.2613,0.2626,0.2635,0.2654,0.2673,0.2681,0.2713,0.2717,0.2704,0.27,0.2685,0.2691,0.2684,0.2696,0.2651,0.2675,0.2679,0.2683,0.2715,0.2723,0.273,0,0,0,0,0,0.2591,0.2601,0.2613,0.2619,0.2647,0.2654,0.2661,0.2693,0.2713,0.2716,0.2733,0.2702,0.2714,0.269,0.2681,0.2693,0.2673,0.2678,0.2683,0.2712,0.2722,0.273,0,0,0,0,0,0,0.259,0.2607,0.2619,0.2634,0.2647,0.2663,0.2679,0.27,0.2717,0.2728,0.2716,0.2713,0.2728,0.2714,0.2688,0.2721,0.2693,0.2696,0.2718,0.2727,0.2734,0.2781,0.2649,0,0,0,0,0,0.2597,0.2597,0.2622,0.2626,0.2636,0.2659,0.2677,0.2697,0.271,0.272,0.2722,0.2732,0.2739,0.2737,0.2736,0.2737,0.276,0.2748,0.2756,0.2762,0.28,0.2834,0.2848,0.2702,0.2702,0.2702,0,0,0.2585,0.2605,0.2599,0.2626,0.2635,0.2659,0.2669,0.269,0.2719,0.2707,0.2744,0.275,0.2749,0.2766,0.2771,0.2755,0.282,0.2769,0.2773,0.2809,0.2841,0.2855,0.2867,0.2706,0.2705,0.2705,0,0,0.2575,0.2586,0.2594,0.2611,0.2649,0.2665,0.2674,0.2704,0.2726,0.2759,0.2773,0.281,0.2798,0.2824,0.2829,0.2881,0.2859,0.2864,0.2931,0.2962,0.2974,0.2985,0.3043,0.3059,0.2866,0.2866,0.2866,0,0.2573,0.2584,0.2597,0.2626,0.2645,0.2669,0.269,0.2715,0.2751,0.2782,0.2778,0.2839,0.284,0.2883,0.2922,0.2898,0.2915,0.2884,0.2971,0.2982,0.2992,0.3049,0.3066,0.2868,0.2868,0.2868,0.2868,0,0.2578,0.2597,0.2597,0.2637,0.2662,0.267,0.2714,0.2754,0.2789,0.2825,0.2882,0.2901,0.2946,0.2948,0.2955,0.3028,0.3018,0.2971,0.294,0.3009,0.3065,0.3082,0.2872,0.2871,0.287,0.287,0,0,0.2535,0.2589,0.2591,0.2619,0.2667,0.2687,0.2742,0.2799,0.2855,0.2898,0.2967,0.3015,0.3041,0.3056,0.3056,0.3105,0.3207,0.3082,0.3083,0.3131,0.3296,0.3203,0.3212,0.3154,0.3157,0.3159,0.3309,0,0.2531,0.2582,0.261,0.265,0.2676,0.2722,0.2773,0.2842,0.2892,0.2968,0.3017,0.3078,0.3068,0.3103,0.3147,0.3201,0.3251,0.3173,0.3234,0.3238,0.3136,0.3228,0.2955,0.3057,0.3325,0.3328,0.333,0,0.2525,0.2572,0.2605,0.2677,0.2692,0.2727,0.2822,0.2878,0.2988,0.3036,0.3108,0.3138,0.3251,0.3212,0.3339,0.3282,0.3312,0.3341,0.3345,0.3264,0.3175,0.3033,0.3078,0.3358,0.3356,0.3354,0.3352,0,0.2495,0.2559,0.2585,0.2604,0.2695,0.2734,0.2799,0.2905,0.2969,0.3097,0.3159,0.3248,0.3324,0.3372,0.3441,0.34,0.3564,0.3498,0.3442,0.3436,0.3226,0.3195,0.3583,0.3583,0.3583,0.3582,0.3582,0,0.2469,0.2494,0.2578,0.2597,0.2659,0.2737,0.2814,0.2901,0.3025,0.3112,0.3194,0.3266,0.3368,0.3451,0.3485,0.3532,0.3594,0.3499,0.3475,0.3231,0.3201,0.3468,0.3453,0.3588,0.3587,0.3585,0.3584,0,0.2416,0.2458,0.25,0.26,0.2638,0.2691,0.2824,0.2884,0.3019,0.3138,0.3191,0.3333,0.3449,0.3518,0.3634,0.3593,0.3642,0.3627,0.3354,0.3295,0.3489,0.3475,0.3608,0.3606,0.3604,0.3603,0.3602,0,0.2389,0.2406,0.2493,0.2515,0.2554,0.2649,0.2709,0.2867,0.2947,0.316,0.3216,0.3372,0.3427,0.3561,0.3551,0.3591,0.3642,0.3343,0.3212,0.3533,0.3496,0.3484,0.3472,0.2963,0.2957,0.2952,0.2948,0,0.2355,0.2372,0.2413,0.2464,0.2514,0.2566,0.2683,0.2734,0.2927,0.3028,0.3154,0.3216,0.3357,0.3269,0.3328,0.3303,0.3314,0.3238,0.3653,0.2984,0.2932,0.2894,0.2902,0.2902,0.2907,0.291,0.2912,0.2914,0.2322,0.2329,0.2374,0.2408,0.2456,0.2461,0.2472,0.258,0.2672,0.2783,0.2956,0.2974,0.3049,0.2989,0.2917,0.2875,0.3097,0.295,0.2963,0.2982,0.2865,0.2811,0.274,0.2744,0.2747,0.275,0.2752,0,0.2272,0.2293,0.232,0.2338,0.2322,0.2395,0.2439,0.2392,0.2418,0.2555,0.2627,0.2461,0.243,0.2512,0.2378,0.2384,0.2333,0.2285,0.2192,0.2241,0.2284,0.2127,0.1809,0.1805,0.1802,0.1799,0,0,0.2245,0.2236,0.224,0.2197,0.2216,0.2158,0.2142,0.2081,0.2115,0.2063,0.21,0.2299,0.2433,0.2084,0.205,0.1901,0.2043,0.1824,0.2589,0.2528,0.2566,0.2687,0.2504,0,0,0,0,0]},{"header":{"parameterUnit":"m.s-1","parameterCategory":2,"la1":30.2991,"la2":30.254,"lo1":-89.0895,"lo2":-89.0444,"dy":0.0017,"dx":0.0017,"nx":28,"ny":28,"refTime":"2023-11-03T03:00:00:Z","depth":"2","parameterNumber":3,"parameterNumberName":"V-component_of_CURRENTS"},"data":[0,0,0,0,0,0,0,0,0,0,0,0,0,0,0,0,0,0,0,0,0,0,0,0,0,0,0,0,0,0,0,0,0,0,0,0,0,0,0,0,0,0,0,0,0,0,0,0,0,0,0,0,0,0,0,0,0,0,0.0176,0.0176,0,0.0141,0.014,0.014,0.0104,0.0103,0.0103,0.0103,0.0076,0.0075,0.0075,0,0,0,0,0,0,0,0,0,0,0,0,0,0.0172,0.0173,0.0176,0.0176,0.0176,0.0141,0.014,0.014,0.0104,0.0103,0.0103,0.0102,0.0076,0.0075,0.0075,0,0,0,0,0,0,0,0,0,0,0,0,0,0.0158,0.0173,0.0177,0.0154,0.0152,0.0141,0.014,0.0139,0.0104,0.0103,0.0103,0.0102,0.0076,0.0075,0.0075,0.0083,0,0,0.0073,0.0073,0,0,0,0,0,0,0,0,0.0159,0.0158,0.0158,0.0156,0.0153,0.0127,0.0129,0.0121,0.0104,0.0121,0.0103,0.0102,0.0095,0.0093,0.0086,0.0082,0.0081,0.0073,0.0073,0.0073,0.0072,0,0,0,0,0,0,0,0.016,0.016,0.0161,0.0158,0.0155,0.0132,0.013,0.0127,0.0111,0.012,0.0117,0.0115,0.0093,0.0086,0.0085,0.008,0.0073,0.0073,0.0072,0.0072,0.006,0.006,0,0,0,0,0,0,0.017,0.0161,0.0162,0.016,0.0156,0.0133,0.013,0.0135,0.0111,0.0107,0.0115,0.0113,0.0087,0.0085,0.0084,0.0094,0.0073,0.0072,0.0072,0.006,0.006,0.006,0,0,0,0,0,0,0.017,0.0171,0.0164,0.016,0.0158,0.0134,0.014,0.0135,0.0123,0.0108,0.0103,0.0109,0.0087,0.0084,0.008,0.0093,0.0072,0.0071,0.006,0.006,0.006,0.0114,0,0,0,0,0,0,0.017,0.0171,0.017,0.0161,0.0158,0.0163,0.014,0.0135,0.0124,0.012,0.0101,0.0098,0.0086,0.0081,0.008,0.0092,0.0071,0.006,0.006,0.006,0.0113,0.0116,0.0119,0,0,0,0,0,0.017,0.0178,0.017,0.017,0.016,0.0164,0.0161,0.0141,0.0124,0.0126,0.0109,0.0098,0.008,0.0081,0.0079,0.0092,0.006,0.006,0.006,0.0111,0.0115,0.0119,0,0,0,0,0,0,0.0175,0.0175,0.0166,0.0172,0.017,0.0158,0.0159,0.0142,0.0129,0.0124,0.0103,0.01,0.0098,0.0085,0.0087,0.0085,0.0066,0.0066,0.0106,0.011,0.0113,0.0127,0.0071,0,0,0,0,0,0.0177,0.0184,0.0179,0.0185,0.0188,0.0172,0.0167,0.0156,0.0146,0.0138,0.0121,0.0105,0.0098,0.0096,0.0085,0.009,0.0071,0.0093,0.0097,0.01,0.0108,0.0088,0.0091,0.006,0.006,0.006,0,0,0.0184,0.0182,0.0188,0.0187,0.0185,0.0196,0.0168,0.017,0.0176,0.0139,0.0139,0.0117,0.01,0.0103,0.0101,0.0094,0.0097,0.01,0.0103,0.011,0.0088,0.0091,0.0094,0.006,0.006,0.006,0,0,0.0208,0.0202,0.0217,0.022,0.0218,0.0211,0.0213,0.0202,0.0194,0.0193,0.0165,0.0147,0.0139,0.0125,0.012,0.0134,0.0114,0.013,0.0166,0.0146,0.0149,0.0151,0.0129,0.0129,0.0135,0.0135,0.0135,0,0.0212,0.0234,0.0222,0.0238,0.0249,0.0223,0.0247,0.0238,0.0221,0.0225,0.0201,0.0177,0.0151,0.016,0.0158,0.0144,0.013,0.0156,0.0152,0.0154,0.0155,0.0132,0.0131,0.0138,0.0138,0.0137,0.0137,0,0.0252,0.0267,0.0281,0.0296,0.0302,0.0321,0.0314,0.0311,0.0293,0.0284,0.028,0.0239,0.0226,0.021,0.0189,0.019,0.0176,0.0158,0.0147,0.0162,0.0136,0.0134,0.0142,0.0141,0.014,0.0139,0,0,0.0276,0.0304,0.031,0.0335,0.0338,0.0357,0.0367,0.038,0.0401,0.0363,0.0387,0.0342,0.0311,0.0301,0.0264,0.024,0.0222,0.0207,0.0205,0.0195,0.0182,0.0152,0.0146,0.0209,0.0209,0.0209,0.016,0,0.0314,0.0364,0.0364,0.0419,0.045,0.0439,0.0458,0.0462,0.0455,0.0467,0.042,0.0424,0.0351,0.0349,0.0309,0.0253,0.0221,0.0237,0.0161,0.0159,0.0137,0.0144,0.0161,0.0118,0.0158,0.0158,0.0158,0,0.0358,0.0387,0.0449,0.0498,0.0512,0.0539,0.058,0.0593,0.0593,0.0587,0.0567,0.0533,0.0493,0.0428,0.0329,0.0346,0.0266,0.0211,0.0207,0.0161,0.0125,0.0108,0.0113,0.0154,0.0155,0.0155,0.0155,0,0.0403,0.0453,0.051,0.0528,0.0569,0.0602,0.0622,0.0635,0.0669,0.067,0.0695,0.0629,0.0616,0.0506,0.0373,0.0358,0.0265,0.023,0.0125,0.0122,0.0112,0.0108,0.0156,0.0156,0.0156,0.0156,0.0156,0,0.0455,0.0501,0.0542,0.0581,0.0656,0.0662,0.0743,0.0745,0.0775,0.084,0.0764,0.0796,0.0636,0.0563,0.0419,0.027,0.0295,0.0135,0.0109,0.013,0.0128,0.0139,0.0138,0.0154,0.0155,0.0155,0.0156,0,0.0504,0.0526,0.0602,0.0662,0.0686,0.0745,0.0829,0.0888,0.0894,0.0977,0.0986,0.0931,0.0833,0.0662,0.0494,0.0346,0.0198,0.0135,0.0167,0.0145,0.0055,0.0057,0.0018,0.0016,0.0015,0.0014,0.0013,0,0.0534,0.0577,0.067,0.0725,0.0762,0.0846,0.0912,0.0945,0.102,0.107,0.1125,0.1054,0.1021,0.0749,0.0486,0.0236,0.0199,0.0077,0.0037,0.0062,0.0042,0.0045,0.0049,0.0044,0.0043,0.0043,0.0042,0,0.0591,0.0627,0.0692,0.0804,0.0892,0.0996,0.1096,0.1173,0.1231,0.1287,0.1346,0.1318,0.1068,0.0814,0.0461,0.0286,0.0114,0.0058,0.009,0.0074,0.0082,0.0063,0.0067,0.0039,0.0039,0.0039,0.0039,0.004,0.0635,0.0692,0.0781,0.0888,0.0996,0.1138,0.1232,0.1341,0.1456,0.1536,0.1503,0.1446,0.1164,0.0705,0.0406,0.0084,0.0099,-0.0025,-0.0022,-0.0018,-0.0009,-0.0003,-0.0061,-0.0062,-0.0062,-0.0062,-0.0062,0,0.0686,0.0751,0.0855,0.0994,0.1119,0.1169,0.1348,0.1431,0.1572,0.1627,0.1644,0.1354,0.107,0.0741,0.0268,-0.0013,-0.0033,-0.011,-0.0068,-0.0062,-0.0057,-0.0048,-0.0112,-0.0113,-0.0114,-0.0115,0,0,0.0719,0.082,0.0873,0.107,0.117,0.1337,0.1444,0.1556,0.1631,0.1666,0.1622,0.1545,0.1162,0.0809,0.0432,0.0161,0.0111,0.0101,0.0171,0.0272,0.028,0.002,0.0044,0,0,0,0,0]}],[{"header":{"parameterUnit":"m.s-1","parameterCategory":2,"la1":30.2991,"la2":30.254,"lo1":-89.0895,"lo2":-89.0444,"dy":0.0017,"dx":0.0017,"nx":28,"ny":28,"refTime":"2023-11-03T03:00:00:Z","depth":"4","parameterNumber":2,"parameterNumberName":"U-component_of_CURRENTS"},"data":[0,0,0,0,0,0,0,0,0,0,0,0,0,0,0,0,0,0,0,0,0,0,0,0,0,0,0,0,0,0,0,0,0,0,0,0,0,0,0,0,0,0,0,0,0,0,0,0,0,0,0,0,0,0,0,0,0,0,0.1462,0.1463,0,0.1551,0.1552,0.1553,0.1619,0.1619,0.162,0.1621,0.1689,0.169,0.1691,0,0,0,0,0,0,0,0,0,0,0,0,0,0.136,0.1361,0.1462,0.1463,0.1464,0.1551,0.1552,0.1553,0.1619,0.1619,0.162,0.1621,0.1688,0.169,0.1691,0,0,0,0,0,0,0,0,0,0,0,0,0,0.1421,0.1361,0.1462,0.1508,0.1513,0.155,0.1552,0.1553,0.1618,0.1619,0.162,0.1621,0.1688,0.169,0.1691,0.1682,0,0,0.1697,0.1698,0,0,0,0,0,0,0,0,0.1417,0.1424,0.15,0.1505,0.1511,0.1576,0.1541,0.1596,0.1618,0.1577,0.1621,0.1622,0.1649,0.1654,0.1667,0.1685,0.1688,0.1697,0.1698,0.1699,0.1699,0,0,0,0,0,0,0,0.1413,0.1421,0.1496,0.1501,0.1508,0.1529,0.1538,0.1552,0.1605,0.1581,0.1586,0.1598,0.1652,0.1665,0.1669,0.1689,0.1697,0.1698,0.17,0.17,0.1799,0.1801,0,0,0,0,0,0,0.1403,0.1417,0.1493,0.1499,0.1467,0.153,0.154,0.1553,0.1606,0.1615,0.1597,0.16,0.1662,0.1667,0.1672,0.175,0.1699,0.17,0.1701,0.1798,0.1799,0.1801,0,0,0,0,0,0,0.14,0.1408,0.149,0.1461,0.1473,0.153,0.1544,0.1554,0.1599,0.1618,0.1627,0.1635,0.1663,0.1669,0.1715,0.175,0.1701,0.1703,0.1796,0.1798,0.18,0.1851,0,0,0,0,0,0,0.1397,0.1407,0.143,0.146,0.1474,0.1528,0.1543,0.1555,0.1603,0.161,0.1653,0.1659,0.1664,0.1712,0.1717,0.1751,0.1704,0.1794,0.1797,0.18,0.1847,0.1855,0.1861,0,0,0,0,0,0.1393,0.141,0.1431,0.1441,0.1498,0.1529,0.1538,0.1581,0.1604,0.1625,0.1661,0.1659,0.1734,0.1715,0.172,0.1756,0.1792,0.1796,0.1799,0.1844,0.1853,0.1861,0,0,0,0,0,0,0.1378,0.142,0.1443,0.1474,0.1509,0.1541,0.1571,0.1596,0.1642,0.1659,0.1675,0.1684,0.1736,0.1738,0.1717,0.1794,0.1764,0.1769,0.1797,0.1805,0.1812,0.1798,0.1706,0,0,0,0,0,0.1385,0.141,0.145,0.1477,0.1499,0.1541,0.1567,0.1595,0.1631,0.1654,0.1688,0.1722,0.1748,0.1772,0.1793,0.1833,0.1841,0.1861,0.1867,0.1873,0.1866,0.1919,0.193,0.1813,0.1813,0.1813,0,0,0.1382,0.1413,0.1426,0.1476,0.1511,0.1543,0.156,0.1605,0.1641,0.1651,0.1722,0.1746,0.1764,0.1812,0.1836,0.1823,0.1914,0.1878,0.1882,0.1872,0.1924,0.1935,0.1945,0.1815,0.1815,0.1814,0,0,0.1386,0.1424,0.1451,0.1481,0.154,0.1564,0.1582,0.1637,0.1677,0.1733,0.1754,0.1797,0.1847,0.1867,0.188,0.1935,0.1946,0.1955,0.1983,0.2035,0.2045,0.2054,0.2089,0.2101,0.1962,0.1962,0.1962,0,0.139,0.1424,0.1462,0.1499,0.1526,0.1575,0.1607,0.1649,0.1715,0.1749,0.1764,0.1852,0.1868,0.1918,0.1942,0.195,0.1981,0.195,0.2044,0.2053,0.2061,0.2095,0.2107,0.1965,0.1965,0.1964,0.1964,0,0.1408,0.1447,0.1465,0.1526,0.1561,0.1594,0.165,0.1705,0.1757,0.1797,0.1876,0.1906,0.1958,0.1975,0.1975,0.2045,0.2049,0.2044,0.2021,0.2076,0.2108,0.212,0.1969,0.1968,0.1967,0.1966,0,0,0.1379,0.1463,0.1471,0.1506,0.1578,0.1606,0.1673,0.174,0.1799,0.1866,0.1935,0.1983,0.2016,0.2032,0.2051,0.2091,0.2175,0.2099,0.21,0.2129,0.2295,0.2149,0.2147,0.2201,0.2203,0.2205,0.2298,0,0.1385,0.1446,0.1488,0.1545,0.158,0.1643,0.17,0.1772,0.1843,0.1926,0.1971,0.2046,0.2035,0.2081,0.2118,0.2165,0.2207,0.2149,0.2241,0.2243,0.2102,0.2155,0.2211,0.2307,0.2309,0.2311,0.2313,0,0.1381,0.1428,0.1483,0.1566,0.159,0.1636,0.1741,0.1801,0.1914,0.1978,0.2054,0.2101,0.2175,0.2161,0.226,0.2234,0.2267,0.2291,0.2295,0.2142,0.2116,0.2239,0.2333,0.2332,0.233,0.2329,0.2327,0,0.1329,0.1417,0.1462,0.1488,0.1592,0.1643,0.1709,0.1821,0.1886,0.2026,0.2097,0.218,0.2252,0.23,0.2351,0.2329,0.2452,0.2426,0.2321,0.2311,0.2393,0.2382,0.2492,0.2492,0.2492,0.2492,0.2492,0,0.1294,0.1333,0.1451,0.1472,0.1544,0.1631,0.1719,0.1809,0.1933,0.2008,0.2128,0.2198,0.2297,0.2372,0.2391,0.2389,0.2492,0.2325,0.2325,0.2413,0.2404,0.2402,0.239,0.2495,0.2495,0.2494,0.2493,0,0.1217,0.129,0.1351,0.1474,0.1519,0.1574,0.1713,0.1773,0.1923,0.2028,0.2082,0.2244,0.2341,0.2414,0.2507,0.2436,0.2453,0.243,0.2529,0.2534,0.2265,0.2255,0.2303,0.2299,0.2295,0.2292,0.2289,0,0.1183,0.1209,0.1335,0.1375,0.1435,0.1533,0.1594,0.1749,0.1813,0.2031,0.2067,0.2229,0.2313,0.2334,0.2415,0.2442,0.2414,0.2404,0.2304,0.225,0.2247,0.2243,0.2238,0.2283,0.2283,0.2282,0.2281,0,0.1123,0.1176,0.1224,0.1301,0.1374,0.1434,0.1541,0.1573,0.1749,0.1906,0.2009,0.2075,0.2183,0.2241,0.2291,0.23,0.2392,0.2364,0.237,0.2276,0.2227,0.2226,0.2226,0.2268,0.2269,0.2271,0.2271,0,0.1084,0.1094,0.1165,0.1217,0.1293,0.1315,0.1381,0.1468,0.1554,0.1793,0.1821,0.2006,0.2157,0.217,0.2212,0.2213,0.2165,0.2078,0.2098,0.2113,0.2004,0.1911,0.1857,0,0,0,0,0,0.1043,0.104,0.1079,0.1123,0.1184,0.1232,0.1337,0.1407,0.1577,0.1601,0.1706,0.18,0.1885,0.1984,0.1944,0.2107,0.2157,0.2049,0.2063,0.2196,0.2211,0.2098,0,0,0,0,0,0,0.1014,0.1047,0.1046,0.1034,0.1044,0.1101,0.1158,0.1268,0.1292,0.1479,0.1539,0.169,0.18,0.1896,0.1914,0.1938,0.1906,0.2163,0.2158,0.2187,0.2201,0.2213,0.2102,0,0,0,0,0]},{"header":{"parameterUnit":"m.s-1","parameterCategory":2,"la1":30.2991,"la2":30.254,"lo1":-89.0895,"lo2":-89.0444,"dy":0.0017,"dx":0.0017,"nx":28,"ny":28,"refTime":"2023-11-03T03:00:00:Z","depth":"4","parameterNumber":3,"parameterNumberName":"V-component_of_CURRENTS"},"data":[0,0,0,0,0,0,0,0,0,0,0,0,0,0,0,0,0,0,0,0,0,0,0,0,0,0,0,0,0,0,0,0,0,0,0,0,0,0,0,0,0,0,0,0,0,0,0,0,0,0,0,0,0,0,0,0,0,0,0.023,0.023,0,0.021,0.021,0.0209,0.0187,0.0187,0.0187,0.0187,0.0165,0.0164,0.0164,0,0,0,0,0,0,0,0,0,0,0,0,0,0.0219,0.022,0.023,0.023,0.023,0.021,0.021,0.0209,0.0187,0.0187,0.0187,0.0187,0.0165,0.0164,0.0164,0,0,0,0,0,0,0,0,0,0,0,0,0,0.0212,0.022,0.023,0.0218,0.0217,0.021,0.0209,0.0209,0.0187,0.0187,0.0187,0.0187,0.0165,0.0164,0.0164,0.0163,0,0,0.0161,0.0161,0,0,0,0,0,0,0,0,0.0213,0.0212,0.022,0.0219,0.0217,0.0203,0.0198,0.0194,0.0187,0.0196,0.0187,0.0186,0.0179,0.0177,0.017,0.0162,0.0161,0.0161,0.0161,0.0161,0.016,0,0,0,0,0,0,0,0.0213,0.0213,0.022,0.022,0.0218,0.0204,0.0202,0.0197,0.0187,0.0195,0.0194,0.0195,0.0178,0.0171,0.017,0.0161,0.0161,0.0161,0.016,0.016,0.0156,0.0156,0,0,0,0,0,0,0.0222,0.0214,0.022,0.0219,0.0217,0.0204,0.0203,0.0206,0.0187,0.0185,0.0196,0.0195,0.0173,0.0171,0.0169,0.0182,0.0161,0.016,0.016,0.0156,0.0156,0.0156,0,0,0,0,0,0,0.0222,0.0223,0.0221,0.0217,0.0217,0.0205,0.0208,0.0206,0.0201,0.0188,0.0185,0.0194,0.0172,0.017,0.0169,0.018,0.016,0.0159,0.0155,0.0156,0.0156,0.0199,0,0,0,0,0,0,0.0221,0.0223,0.0226,0.0218,0.0217,0.0222,0.0209,0.0205,0.0203,0.0201,0.0186,0.0183,0.0172,0.0171,0.0169,0.0179,0.0158,0.0155,0.0156,0.0156,0.0197,0.0201,0.0204,0,0,0,0,0,0.0221,0.023,0.0226,0.0227,0.0223,0.0223,0.0221,0.021,0.0203,0.0204,0.0195,0.0184,0.0173,0.0171,0.0168,0.0179,0.0155,0.0155,0.0156,0.0195,0.02,0.0204,0,0,0,0,0,0,0.0227,0.0229,0.0224,0.0233,0.023,0.022,0.0222,0.0213,0.0206,0.0206,0.0189,0.0186,0.0188,0.0177,0.0175,0.0178,0.0161,0.0162,0.0192,0.0196,0.0199,0.021,0.0158,0,0,0,0,0,0.023,0.0238,0.0234,0.0241,0.0243,0.0232,0.023,0.0224,0.0218,0.0214,0.0204,0.0194,0.0189,0.0188,0.0179,0.0184,0.0158,0.0188,0.0192,0.0195,0.0201,0.0169,0.017,0.0159,0.0159,0.0159,0,0,0.0236,0.0237,0.0242,0.0243,0.024,0.0249,0.023,0.0234,0.0241,0.0214,0.022,0.0205,0.0192,0.0196,0.0196,0.0189,0.0182,0.0196,0.0198,0.0204,0.017,0.0171,0.0172,0.0159,0.0159,0.0159,0,0,0.0253,0.0252,0.0264,0.0266,0.0267,0.0263,0.0266,0.0259,0.0256,0.026,0.0242,0.0235,0.0228,0.022,0.0216,0.0233,0.0199,0.0229,0.0259,0.0228,0.0229,0.0229,0.019,0.0187,0.0234,0.0234,0.0234,0,0.0256,0.0274,0.0267,0.0279,0.0289,0.0273,0.0291,0.0286,0.0279,0.0283,0.0269,0.0254,0.0241,0.0247,0.0253,0.0242,0.0214,0.0246,0.0233,0.0232,0.0232,0.0192,0.0187,0.0236,0.0236,0.0235,0.0235,0,0.0284,0.0298,0.0307,0.032,0.0327,0.0341,0.0339,0.0341,0.0336,0.0329,0.0329,0.0304,0.0298,0.0289,0.0279,0.0274,0.025,0.0238,0.0223,0.0236,0.0192,0.0187,0.0239,0.0238,0.0238,0.0237,0,0,0.0294,0.0321,0.0325,0.0346,0.0354,0.0367,0.0381,0.0393,0.0409,0.0387,0.0399,0.0381,0.0361,0.0355,0.0332,0.0306,0.0275,0.0276,0.0273,0.0239,0.0197,0.0174,0.0165,0.0257,0.0257,0.0257,0.0165,0,0.0318,0.0358,0.0364,0.0406,0.043,0.0428,0.0447,0.0453,0.045,0.0454,0.0423,0.0424,0.0388,0.0387,0.0354,0.0299,0.0264,0.0301,0.0188,0.0185,0.0165,0.016,0.0255,0.0161,0.016,0.0159,0.0158,0,0.0345,0.0371,0.0419,0.0463,0.0474,0.0498,0.0534,0.0548,0.0544,0.0538,0.0522,0.0492,0.0459,0.0424,0.0326,0.035,0.028,0.0227,0.0222,0.0184,0.0152,0.0147,0.0148,0.0149,0.0149,0.015,0.0151,0,0.0368,0.0412,0.0458,0.0473,0.0513,0.0542,0.0567,0.0579,0.0605,0.0595,0.0602,0.0546,0.0527,0.0432,0.0324,0.0324,0.0203,0.0189,0.0097,0.0094,0.0124,0.0124,0.0114,0.0114,0.0114,0.0114,0.0114,0,0.0394,0.0432,0.0479,0.0507,0.057,0.0585,0.065,0.0656,0.0676,0.071,0.0653,0.0651,0.0529,0.0446,0.0335,0.0198,0.0208,0.01,0.0071,0.0142,0.0146,0.0119,0.0121,0.0111,0.0111,0.0112,0.0113,0,0.0412,0.0439,0.05,0.0559,0.0586,0.0634,0.0713,0.0754,0.0761,0.0798,0.0798,0.073,0.0616,0.0478,0.0321,0.0223,0.009,0.0037,0.0119,0.0096,-0.0005,0.0001,-0.0074,-0.0075,-0.0077,-0.0078,-0.0079,0,0.0424,0.0457,0.0543,0.0587,0.0621,0.0698,0.0753,0.0793,0.0839,0.0845,0.0862,0.0769,0.0701,0.0462,0.0307,0.0082,0.005,-0.0024,-0.0011,-0.0002,-0.0023,-0.0016,-0.0009,-0.0081,-0.0081,-0.0081,-0.0082,0,0.0446,0.048,0.053,0.0624,0.0697,0.078,0.0861,0.0895,0.0938,0.0945,0.0912,0.0788,0.0653,0.0462,0.0284,0.0125,0.0022,-0.0039,-0.0037,-0.0025,-0.0011,-0.0029,-0.0021,-0.0086,-0.0086,-0.0085,-0.0085,0,0.0464,0.0501,0.0573,0.0658,0.0748,0.0834,0.0876,0.0929,0.0971,0.0973,0.0958,0.081,0.0731,0.0483,0.0321,0.0158,0.0115,0.0063,0.0059,0.0062,0.0126,0.0165,0.0119,0,0,0,0,0,0.0476,0.0522,0.06,0.0695,0.0787,0.0846,0.0937,0.0971,0.1008,0.0993,0.098,0.0852,0.0608,0.0504,0.0337,0.0282,0.0077,0.0078,0.0013,-0.0111,-0.0106,-0.0057,0,0,0,0,0,0,0.0484,0.0553,0.0598,0.0715,0.0782,0.089,0.095,0.0974,0.097,0.0975,0.0851,0.0801,0.0566,0.0702,0.033,0.0281,0.0213,-0.0029,-0.0033,-0.0114,-0.011,-0.0105,-0.0053,0,0,0,0,0]}]]